Location: Newark
(56.0692°N, 115.8617°E)
Time: 12:42:58
(UTC+00:00)

Vanguard 2 Rocket - Pass Details

Date: 27 May 2020
Orbit: 556 x 3325 km, 32.9° (Epoch: 14 July)

Event Time Altitude Azimuth Distance (km) Brightness Sun altitude
Rises 06:42:29 0° 181° (S) 4,459 10.8 45.8°
Reaches altitude 10° 06:49:18 10° 146° (SE) 4,251 10.4 45.0°
Maximum altitude 06:51:18 11° 136° (SE) 4,415 10.4 44.8°
Drops below altitude 10° 06:53:28 10° 126° (SE) 4,681 10.5 44.5°
Sets 07:03:26 0° 96° (E) 6,546 10.9 43.3°
